date,time,SUV Intensity [MED/Hr],UV Index,Daily total [MED],Since Last [MED]
29/03/2022,00:06:24,-0.000,0.0,0.0,0.0
29/03/2022,00:07:15,0.000,0.0,0.0,0.0
29/03/2022,00:08:16,-0.000,0.0,0.0,0.0
29/03/2022,00:09:25,-0.001,0.0,0.0,0.0
29/03/2022,00:10:16,0.001,0.0,0.0,0.0
29/03/2022,00:11:16,-0.000,0.0,0.0,0.0
29/03/2022,00:12:16,-0.000,0.0,0.0,0.0
29/03/2022,00:13:16,0.000,0.0,0.0,0.0
29/03/2022,00:14:17,0.000,0.0,0.0,0.0
29/03/2022,00:15:17,-0.001,0.0,0.0,0.0
29/03/2022,00:16:25,0.000,0.0,0.0,0.0
29/03/2022,00:18:17,0.000,0.0,0.0,0.0
29/03/2022,00:19:25,0.001,0.0,0.0,0.0
29/03/2022,00:20:16,0.001,0.0,0.0,0.0
29/03/2022,00:21:16,-0.001,0.0,0.0,0.0
29/03/2022,00:22:16,0.000,0.0,0.0,0.0
29/03/2022,00:23:16,0.000,0.0,0.0,0.0
29/03/2022,00:24:17,-0.000,0.0,0.0,0.0
29/03/2022,00:25:17,0.000,0.0,0.0,0.0
29/03/2022,00:26:17,-0.001,0.0,0.0,0.0
29/03/2022,00:27:16,0.000,0.0,0.0,0.0
29/03/2022,00:28:17,0.000,0.0,0.0,0.0
29/03/2022,00:29:16,0.001,0.0,0.0,0.0
29/03/2022,00:30:16,0.000,0.0,0.0,0.0
29/03/2022,00:31:16,0.000,0.0,0.0,0.0
29/03/2022,00:32:25,0.000,0.0,0.0,0.0
29/03/2022,00:34:17,0.000,0.0,0.0,0.0
29/03/2022,00:35:16,-0.001,0.0,0.0,0.0
29/03/2022,00:36:17,0.000,0.0,0.0,0.0
29/03/2022,00:37:17,0.000,0.0,0.0,0.0
29/03/2022,00:38:16,0.000,0.0,0.0,0.0
29/03/2022,00:39:16,-0.001,0.0,0.0,0.0
29/03/2022,00:40:17,0.001,0.0,0.0,0.0
29/03/2022,00:41:16,0.000,0.0,0.0,0.0
29/03/2022,00:42:17,-0.000,0.0,0.0,0.0
29/03/2022,00:43:16,0.000,0.0,0.0,0.0
29/03/2022,00:44:17,-0.000,0.0,0.0,0.0
29/03/2022,00:45:17,0.000,0.0,0.0,0.0
29/03/2022,00:46:17,0.002,0.0,0.0,0.0
29/03/2022,00:47:17,0.000,0.0,0.0,0.0
29/03/2022,00:48:25,0.000,0.0,0.0,0.0
29/03/2022,00:50:25,-0.001,0.0,0.0,0.0
29/03/2022,00:52:26,0.001,0.0,0.0,0.0
29/03/2022,00:53:17,0.000,0.0,0.0,0.0
29/03/2022,00:54:16,0.000,0.0,0.0,0.0
29/03/2022,00:55:17,0.000,0.0,0.0,0.0
29/03/2022,00:56:16,0.001,0.0,0.0,0.0
29/03/2022,00:57:16,0.001,0.0,0.0,0.0
29/03/2022,00:58:50,-0.000,0.0,0.0,0.0
29/03/2022,01:00:17,0.001,0.0,0.0,0.0
29/03/2022,01:01:17,0.000,0.0,0.0,0.0
29/03/2022,01:02:17,0.000,0.0,0.0,0.0
29/03/2022,01:03:17,0.001,0.0,0.0,0.0
29/03/2022,01:04:16,0.000,0.0,0.0,0.0
29/03/2022,01:05:17,0.001,0.0,0.0,0.0
29/03/2022,01:06:25,0.001,0.0,0.0,0.0
29/03/2022,01:07:16,0.001,0.0,0.0,0.0
29/03/2022,01:08:16,0.000,0.0,0.0,0.0
29/03/2022,01:09:16,0.000,0.0,0.0,0.0
29/03/2022,01:10:17,0.001,0.0,0.0,0.0
29/03/2022,01:11:17,0.001,0.0,0.0,0.0
29/03/2022,01:12:17,0.001,0.0,0.0,0.0
29/03/2022,01:13:16,0.001,0.0,0.0,0.0
29/03/2022,01:14:33,0.001,0.0,0.0,0.0
29/03/2022,01:16:17,0.001,0.0,0.0,0.0
29/03/2022,01:17:16,0.001,0.0,0.0,0.0
29/03/2022,01:18:16,0.001,0.0,0.0,0.0
29/03/2022,01:19:16,0.001,0.0,0.0,0.0
29/03/2022,01:20:17,0.001,0.0,0.0,0.0
29/03/2022,01:21:16,0.001,0.0,0.0,0.0
29/03/2022,01:22:16,0.001,0.0,0.0,0.0
29/03/2022,01:23:16,0.001,0.0,0.0,0.0
29/03/2022,01:24:17,0.000,0.0,0.0,0.0
29/03/2022,01:25:17,0.001,0.0,0.0,0.0
29/03/2022,01:26:17,0.001,0.0,0.0,0.0
29/03/2022,01:27:16,0.001,0.0,0.0,0.0
29/03/2022,01:28:17,0.001,0.0,0.0,0.0
29/03/2022,01:29:17,0.001,0.0,0.0,0.0
29/03/2022,01:30:16,0.000,0.0,0.0,0.0
29/03/2022,01:31:16,0.001,0.0,0.0,0.0
29/03/2022,01:32:16,0.002,0.0,0.0,0.0
29/03/2022,01:33:16,0.001,0.0,0.0,0.0
29/03/2022,01:34:19,0.001,0.0,0.0,0.0
29/03/2022,01:35:17,0.001,0.0,0.0,0.0
29/03/2022,01:36:16,0.001,0.0,0.0,0.0
29/03/2022,01:37:16,0.001,0.0,0.0,0.0
29/03/2022,01:38:17,0.001,0.0,0.0,0.0
29/03/2022,01:39:17,0.001,0.0,0.0,0.0
29/03/2022,01:40:17,0.001,0.0,0.0,0.0
29/03/2022,01:41:16,0.001,0.0,0.0,0.0
29/03/2022,01:42:16,0.001,0.0,0.0,0.0
29/03/2022,01:43:16,0.001,0.0,0.0,0.0
29/03/2022,01:44:17,0.002,0.0,0.0,0.0
29/03/2022,01:45:25,0.001,0.0,0.0,0.0
29/03/2022,01:46:16,0.001,0.0,0.0,0.0
29/03/2022,01:47:17,0.000,0.0,0.0,0.0
29/03/2022,01:48:16,0.002,0.0,0.0,0.0
29/03/2022,01:49:17,0.002,0.0,0.0,0.0
29/03/2022,01:50:17,0.001,0.0,0.0,0.0
29/03/2022,01:51:24,0.001,0.0,0.0,0.0
29/03/2022,01:52:15,0.001,0.0,0.0,0.0
29/03/2022,01:53:17,0.000,0.0,0.0,0.0
29/03/2022,01:54:17,0.001,0.0,0.0,0.0
29/03/2022,01:55:18,0.001,0.0,0.0,0.0
29/03/2022,01:56:17,0.001,0.0,0.0,0.0
29/03/2022,01:57:17,0.001,0.0,0.0,0.0
29/03/2022,01:58:17,0.002,0.0,0.0,0.0
29/03/2022,01:59:17,0.001,0.0,0.0,0.0
29/03/2022,02:00:16,0.001,0.0,0.0,0.0
29/03/2022,02:01:25,0.001,0.0,0.0,0.0
29/03/2022,02:02:16,0.002,0.0,0.0,0.0
29/03/2022,02:03:16,0.001,0.0,0.0,0.0
29/03/2022,02:04:25,0.002,0.0,0.0,0.0
29/03/2022,02:05:17,0.000,0.0,0.0,0.0
29/03/2022,02:06:17,0.001,0.0,0.0,0.0
29/03/2022,02:07:16,0.001,0.0,0.0,0.0
29/03/2022,02:08:17,0.001,0.0,0.0,0.0
29/03/2022,02:09:17,0.001,0.0,0.0,0.0
29/03/2022,02:10:17,0.001,0.0,0.0,0.0
29/03/2022,02:11:17,0.002,0.0,0.0,0.0
29/03/2022,02:12:17,0.001,0.0,0.0,0.0
29/03/2022,02:13:16,0.000,0.0,0.0,0.0
29/03/2022,02:14:27,0.001,0.0,0.0,0.0
29/03/2022,02:16:17,0.002,0.0,0.0,0.0
29/03/2022,02:17:17,0.001,0.0,0.0,0.0
29/03/2022,02:18:16,0.002,0.0,0.0,0.0
29/03/2022,02:19:17,0.001,0.0,0.0,0.0
29/03/2022,02:20:24,0.001,0.0,0.0,0.0
29/03/2022,02:21:15,0.001,0.0,0.0,0.0
29/03/2022,02:22:17,0.001,0.0,0.0,0.0
29/03/2022,02:23:16,0.001,0.0,0.0,0.0
29/03/2022,02:24:17,0.001,0.0,0.0,0.0
29/03/2022,02:25:17,0.001,0.0,0.0,0.0
29/03/2022,02:26:17,0.000,0.0,0.0,0.0
29/03/2022,02:27:25,0.001,0.0,0.0,0.0
29/03/2022,02:28:16,0.001,0.0,0.0,0.0
29/03/2022,02:29:17,0.001,0.0,0.0,0.0
29/03/2022,02:30:25,0.000,0.0,0.0,0.0
29/03/2022,02:31:16,0.001,0.0,0.0,0.0
29/03/2022,02:32:17,0.001,0.0,0.0,0.0
29/03/2022,02:33:16,0.000,0.0,0.0,0.0
29/03/2022,02:34:17,0.001,0.0,0.0,0.0
29/03/2022,02:35:18,0.001,0.0,0.0,0.0
29/03/2022,02:36:16,0.001,0.0,0.0,0.0
29/03/2022,02:37:17,0.001,0.0,0.0,0.0
29/03/2022,02:38:17,0.002,0.0,0.0,0.0
29/03/2022,02:39:17,0.002,0.0,0.0,0.0
29/03/2022,02:40:25,0.001,0.0,0.0,0.0
29/03/2022,02:41:15,0.001,0.0,0.0,0.0
29/03/2022,02:42:17,0.001,0.0,0.0,0.0
29/03/2022,02:43:17,0.001,0.0,0.0,0.0
29/03/2022,02:44:17,0.001,0.0,0.0,0.0
29/03/2022,02:45:17,0.000,0.0,0.0,0.0
29/03/2022,02:46:16,0.001,0.0,0.0,0.0
29/03/2022,02:47:17,0.001,0.0,0.0,0.0
29/03/2022,02:48:17,0.001,0.0,0.0,0.0
29/03/2022,02:49:17,0.002,0.0,0.0,0.0
29/03/2022,02:50:25,0.002,0.0,0.0,0.0
29/03/2022,02:51:16,0.000,0.0,0.0,0.0
29/03/2022,02:52:16,0.002,0.0,0.0,0.0
29/03/2022,02:53:25,0.001,0.0,0.0,0.0
29/03/2022,02:55:18,0.002,0.0,0.0,0.0
29/03/2022,02:56:17,0.001,0.0,0.0,0.0
29/03/2022,02:57:17,0.001,0.0,0.0,0.0
29/03/2022,02:58:17,0.001,0.0,0.0,0.0
29/03/2022,02:59:18,0.000,0.0,0.0,0.0
29/03/2022,03:00:16,0.001,0.0,0.0,0.0
29/03/2022,03:01:17,0.001,0.0,0.0,0.0
29/03/2022,03:02:17,0.001,0.0,0.0,0.0
29/03/2022,03:03:17,0.002,0.0,0.0,0.0
29/03/2022,03:04:17,0.001,0.0,0.0,0.0
29/03/2022,03:05:17,0.001,0.0,0.0,0.0
29/03/2022,03:06:25,0.002,0.0,0.0,0.0
29/03/2022,03:07:25,0.001,0.0,0.0,0.0
29/03/2022,03:08:16,0.002,0.0,0.0,0.0
29/03/2022,03:09:17,0.001,0.0,0.0,0.0
29/03/2022,03:10:17,0.001,0.0,0.0,0.0
29/03/2022,03:11:17,0.001,0.0,0.0,0.0
29/03/2022,03:12:17,0.001,0.0,0.0,0.0
29/03/2022,03:13:17,0.001,0.0,0.0,0.0
29/03/2022,03:14:18,0.001,0.0,0.0,0.0
29/03/2022,03:15:17,0.001,0.0,0.0,0.0
29/03/2022,03:16:25,0.001,0.0,0.0,0.0
29/03/2022,03:17:16,0.002,0.0,0.0,0.0
29/03/2022,03:18:17,0.001,0.0,0.0,0.0
29/03/2022,03:19:16,0.002,0.0,0.0,0.0
29/03/2022,03:20:17,0.002,0.0,0.0,0.0
29/03/2022,03:21:17,0.001,0.0,0.0,0.0
29/03/2022,03:22:17,0.000,0.0,0.0,0.0
29/03/2022,03:23:17,0.001,0.0,0.0,0.0
29/03/2022,03:24:17,0.001,0.0,0.0,0.0
29/03/2022,03:25:16,0.000,0.0,0.0,0.0
29/03/2022,03:26:25,0.001,0.0,0.0,0.0
29/03/2022,03:28:18,0.001,0.0,0.0,0.0
29/03/2022,03:29:17,0.002,0.0,0.0,0.0
29/03/2022,03:30:16,0.001,0.0,0.0,0.0
29/03/2022,03:31:17,0.001,0.0,0.0,0.0
29/03/2022,03:32:17,0.002,0.0,0.0,0.0
29/03/2022,03:33:17,0.001,0.0,0.0,0.0
29/03/2022,03:34:17,0.002,0.0,0.0,0.0
29/03/2022,03:35:16,0.001,0.0,0.0,0.0
29/03/2022,03:36:25,0.002,0.0,0.0,0.0
29/03/2022,03:38:18,0.001,0.0,0.0,0.0
29/03/2022,03:39:17,0.001,0.0,0.0,0.0
29/03/2022,03:40:17,0.001,0.0,0.0,0.0
29/03/2022,03:41:17,0.001,0.0,0.0,0.0
29/03/2022,03:42:17,0.001,0.0,0.0,0.0
29/03/2022,03:43:16,0.002,0.0,0.0,0.0
29/03/2022,03:44:17,0.001,0.0,0.0,0.0
29/03/2022,03:45:16,0.002,0.0,0.0,0.0
29/03/2022,03:46:25,0.001,0.0,0.0,0.0
29/03/2022,03:47:16,0.001,0.0,0.0,0.0
29/03/2022,03:48:17,0.001,0.0,0.0,0.0
29/03/2022,03:49:17,0.001,0.0,0.0,0.0
29/03/2022,03:50:17,0.001,0.0,0.0,0.0
29/03/2022,03:51:16,0.001,0.0,0.0,0.0
29/03/2022,03:52:17,0.001,0.0,0.0,0.0
29/03/2022,03:53:16,0.001,0.0,0.0,0.0
29/03/2022,03:54:17,0.001,0.0,0.0,0.0
29/03/2022,03:55:17,0.001,0.0,0.0,0.0
29/03/2022,03:56:25,0.001,0.0,0.0,0.0
29/03/2022,03:58:17,0.000,0.0,0.0,0.0
29/03/2022,03:59:26,0.000,0.0,0.0,0.0
29/03/2022,04:00:16,0.001,0.0,0.0,0.0
29/03/2022,04:01:17,0.001,0.0,0.0,0.0
29/03/2022,04:02:17,0.001,0.0,0.0,0.0
29/03/2022,04:03:17,0.001,0.0,0.0,0.0
29/03/2022,04:04:17,0.001,0.0,0.0,0.0
29/03/2022,04:05:17,0.001,0.0,0.0,0.0
29/03/2022,04:06:17,0.001,0.0,0.0,0.0
29/03/2022,04:07:17,0.001,0.0,0.0,0.0
29/03/2022,04:08:17,0.001,0.0,0.0,0.0
29/03/2022,04:09:17,0.001,0.0,0.0,0.0
29/03/2022,04:10:16,0.001,0.0,0.0,0.0
29/03/2022,04:11:17,0.000,0.0,0.0,0.0
29/03/2022,04:12:17,0.002,0.0,0.0,0.0
29/03/2022,04:13:18,0.002,0.0,0.0,0.0
29/03/2022,04:14:17,0.000,0.0,0.0,0.0
29/03/2022,04:15:17,0.001,0.0,0.0,0.0
29/03/2022,04:16:17,0.001,0.0,0.0,0.0
29/03/2022,04:17:17,0.000,0.0,0.0,0.0
29/03/2022,04:18:17,0.001,0.0,0.0,0.0
29/03/2022,04:19:17,0.001,0.0,0.0,0.0
29/03/2022,04:20:17,0.001,0.0,0.0,0.0
29/03/2022,04:21:17,0.000,0.0,0.0,0.0
29/03/2022,04:22:17,0.001,0.0,0.0,0.0
29/03/2022,04:23:17,0.001,0.0,0.0,0.0
29/03/2022,04:24:17,0.001,0.0,0.0,0.0
29/03/2022,04:25:17,0.001,0.0,0.0,0.0
29/03/2022,04:26:17,0.001,0.0,0.0,0.0
29/03/2022,04:27:17,0.002,0.0,0.0,0.0
29/03/2022,04:28:17,0.001,0.0,0.0,0.0
29/03/2022,04:29:25,0.001,0.0,0.0,0.0
29/03/2022,04:31:17,0.001,0.0,0.0,0.0
29/03/2022,04:32:25,0.001,0.0,0.0,0.0
29/03/2022,04:34:18,0.001,0.0,0.0,0.0
29/03/2022,04:35:17,0.002,0.0,0.0,0.0
29/03/2022,04:36:17,0.002,0.0,0.0,0.0
29/03/2022,04:37:17,0.001,0.0,0.0,0.0
29/03/2022,04:38:17,0.000,0.0,0.0,0.0
29/03/2022,04:39:17,0.001,0.0,0.0,0.0
29/03/2022,04:40:25,0.001,0.0,0.0,0.0
29/03/2022,04:41:16,0.001,0.0,0.0,0.0
29/03/2022,04:42:26,0.001,0.0,0.0,0.0
29/03/2022,04:43:25,0.001,0.0,0.0,0.0
29/03/2022,04:45:18,0.001,0.0,0.0,0.0
29/03/2022,04:46:17,0.001,0.0,0.0,0.0
29/03/2022,04:47:17,0.002,0.0,0.0,0.0
29/03/2022,04:48:17,0.001,0.0,0.0,0.0
29/03/2022,04:49:17,0.001,0.0,0.0,0.0
29/03/2022,04:50:17,0.001,0.0,0.0,0.0
29/03/2022,04:51:17,0.001,0.0,0.0,0.0
29/03/2022,04:52:17,0.000,0.0,0.0,0.0
29/03/2022,04:53:17,0.001,0.0,0.0,0.0
29/03/2022,04:54:16,0.001,0.0,0.0,0.0
29/03/2022,04:55:17,0.002,0.0,0.0,0.0
29/03/2022,04:56:25,-0.000,0.0,0.0,0.0
29/03/2022,04:57:15,0.000,0.0,0.0,0.0
29/03/2022,04:58:17,0.000,0.0,0.0,0.0
29/03/2022,04:59:17,0.001,0.0,0.0,0.0
29/03/2022,05:00:25,0.002,0.0,0.0,0.0
29/03/2022,05:01:16,0.002,0.0,0.0,0.0
29/03/2022,05:02:18,0.002,0.0,0.0,0.0
29/03/2022,05:03:25,0.001,0.0,0.0,0.0
29/03/2022,05:04:16,0.001,0.0,0.0,0.0
29/03/2022,05:05:16,0.001,0.0,0.0,0.0
29/03/2022,05:06:17,0.000,0.0,0.0,0.0
29/03/2022,05:07:17,-0.001,0.0,0.0,0.0
29/03/2022,05:08:17,0.001,0.0,0.0,0.0
29/03/2022,05:09:17,0.001,0.0,0.0,0.0
29/03/2022,05:10:17,0.002,0.0,0.0,0.0
29/03/2022,05:11:17,0.001,0.0,0.0,0.0
29/03/2022,05:12:17,0.001,0.0,0.0,0.0
29/03/2022,05:13:25,0.001,0.0,0.0,0.0
29/03/2022,05:14:17,0.002,0.0,0.0,0.0
29/03/2022,05:15:18,0.001,0.0,0.0,0.0
29/03/2022,05:16:16,0.002,0.0,0.0,0.0
29/03/2022,05:17:17,0.001,0.0,0.0,0.0
29/03/2022,05:18:17,0.001,0.0,0.0,0.0
29/03/2022,05:19:17,0.001,0.0,0.0,0.0
29/03/2022,05:20:17,0.001,0.0,0.0,0.0
29/03/2022,05:21:18,0.001,0.0,0.0,0.0
29/03/2022,05:22:17,0.001,0.0,0.0,0.0
29/03/2022,05:23:25,0.000,0.0,0.0,0.0
29/03/2022,05:24:17,0.000,0.0,0.0,0.0
29/03/2022,05:25:17,0.001,0.0,0.0,0.0
29/03/2022,05:26:17,0.002,0.0,0.0,0.0
29/03/2022,05:27:17,0.001,0.0,0.0,0.0
29/03/2022,05:28:17,0.001,0.0,0.0,0.0
29/03/2022,05:29:17,0.002,0.0,0.0,0.0
29/03/2022,05:30:17,0.000,0.0,0.0,0.0
29/03/2022,05:31:17,0.001,0.0,0.0,0.0
29/03/2022,05:32:17,0.001,0.0,0.0,0.0
29/03/2022,05:33:25,0.002,0.0,0.0,0.0
29/03/2022,05:34:16,0.001,0.0,0.0,0.0
29/03/2022,05:35:17,0.002,0.0,0.0,0.0
29/03/2022,05:36:25,0.001,0.0,0.0,0.0
29/03/2022,05:37:16,0.001,0.0,0.0,0.0
29/03/2022,05:38:17,0.001,0.0,0.0,0.0
29/03/2022,05:39:25,0.001,0.0,0.0,0.0
29/03/2022,05:40:16,0.001,0.0,0.0,0.0
29/03/2022,05:41:15,0.002,0.0,0.0,0.0
29/03/2022,05:42:17,0.001,0.0,0.0,0.0
29/03/2022,05:43:17,0.001,0.0,0.0,0.0
29/03/2022,05:44:17,0.001,0.0,0.0,0.0
29/03/2022,05:45:17,0.001,0.0,0.0,0.0
29/03/2022,05:46:17,0.002,0.0,0.0,0.0
29/03/2022,05:47:17,0.002,0.0,0.0,0.0
29/03/2022,05:48:07,0.002,0.0,0.0,0.0
29/03/2022,05:49:18,0.002,0.0,0.0,0.0
29/03/2022,05:50:17,0.002,0.0,0.0,0.0
29/03/2022,05:51:17,0.002,0.0,0.0,0.0
29/03/2022,05:52:17,0.002,0.0,0.0,0.0
29/03/2022,05:53:18,0.002,0.0,0.0,0.0
29/03/2022,05:54:17,0.002,0.0,0.0,0.0
29/03/2022,05:55:17,0.002,0.0,0.0,0.0
29/03/2022,05:56:17,0.002,0.0,0.0,0.0
29/03/2022,05:57:17,0.002,0.0,0.0,0.0
29/03/2022,05:58:17,0.003,0.0,0.0,0.0
29/03/2022,05:59:26,0.003,0.0,0.0,0.0
29/03/2022,06:00:25,0.003,0.0,0.0,0.0
29/03/2022,06:01:16,0.002,0.0,0.0,0.0
29/03/2022,06:02:17,0.003,0.0,0.0,0.0
29/03/2022,06:03:17,0.003,0.0,0.0,0.0
29/03/2022,06:04:17,0.003,0.0,0.0,0.0
29/03/2022,06:05:17,0.003,0.0,0.0,0.0
29/03/2022,06:06:17,0.003,0.0,0.0,0.0
29/03/2022,06:07:17,0.003,0.0,0.0,0.0
29/03/2022,06:08:17,0.002,0.0,0.0,0.0
29/03/2022,06:09:18,0.002,0.0,0.0,0.0
29/03/2022,06:10:17,0.004,0.0,0.0,0.0
29/03/2022,06:11:17,0.003,0.0,0.0,0.0
29/03/2022,06:12:17,0.003,0.0,0.0,0.0
29/03/2022,06:13:25,0.003,0.0,0.0,0.0
29/03/2022,06:14:16,0.003,0.0,0.0,0.0
29/03/2022,06:15:17,0.003,0.0,0.0,0.0
29/03/2022,06:16:17,0.004,0.0,0.0,0.0
29/03/2022,06:17:17,0.005,0.0,0.0,0.0
29/03/2022,06:18:17,0.004,0.0,0.0,0.0
29/03/2022,06:19:17,0.004,0.0,0.0,0.0
29/03/2022,06:20:17,0.003,0.0,0.0,0.0
29/03/2022,06:21:17,0.004,0.0,0.0,0.0
29/03/2022,06:22:17,0.005,0.0,0.0,0.0
29/03/2022,06:23:25,0.004,0.0,0.0,0.0
29/03/2022,06:24:16,0.004,0.0,0.0,0.0
29/03/2022,06:25:18,0.004,0.0,0.0,0.0
29/03/2022,06:26:17,0.004,0.0,0.0,0.0
29/03/2022,06:27:17,0.004,0.0,0.0,0.0
29/03/2022,06:28:18,0.005,0.0,0.0,0.0
29/03/2022,06:29:17,0.004,0.0,0.0,0.0
29/03/2022,06:30:17,0.004,0.0,0.0,0.0
29/03/2022,06:31:17,0.004,0.0,0.0,0.0
29/03/2022,06:32:17,0.004,0.0,0.0,0.0
29/03/2022,06:33:26,0.005,0.0,0.0,0.0
29/03/2022,06:35:18,0.005,0.0,0.0,0.0
29/03/2022,06:36:24,0.005,0.0,0.0,0.0
29/03/2022,06:37:17,0.005,0.0,0.0,0.0
29/03/2022,06:38:17,0.005,0.0,0.0,0.0
29/03/2022,06:39:17,0.005,0.0,0.0,0.0
29/03/2022,06:40:18,0.006,0.0,0.0,0.0
29/03/2022,06:41:17,0.006,0.0,0.0,0.0
29/03/2022,06:42:18,0.006,0.0,0.0,0.0
29/03/2022,06:43:17,0.006,0.0,0.0,0.0
29/03/2022,06:44:18,0.006,0.0,0.0,0.0
29/03/2022,06:45:17,0.007,0.0,0.0,0.0
29/03/2022,06:46:17,0.006,0.0,0.0,0.0
29/03/2022,06:47:25,0.006,0.0,0.001,0.001
29/03/2022,06:48:17,0.007,0.0,0.001,0.0
29/03/2022,06:49:17,0.008,0.0,0.001,0.0
29/03/2022,06:50:17,0.009,0.0,0.001,0.0
29/03/2022,06:51:17,0.008,0.0,0.001,0.0
29/03/2022,06:52:18,0.007,0.0,0.001,0.0
29/03/2022,06:53:17,0.009,0.0,0.001,0.0
29/03/2022,06:54:17,0.009,0.0,0.001,0.0
29/03/2022,06:55:17,0.009,0.0,0.002,0.001
29/03/2022,06:56:17,0.008,0.0,0.002,0.0
29/03/2022,06:57:26,0.011,0.0,0.002,0.0
29/03/2022,06:58:17,0.011,0.0,0.002,0.0
29/03/2022,06:59:17,0.011,0.0,0.002,0.0
29/03/2022,07:00:17,0.011,0.0,0.002,0.0
29/03/2022,07:01:26,0.011,0.0,0.003,0.001
29/03/2022,07:02:17,0.013,0.0,0.003,0.0
29/03/2022,07:03:18,0.013,0.0,0.003,0.0
29/03/2022,07:04:17,0.013,0.0,0.003,0.0
29/03/2022,07:05:18,0.013,0.0,0.004,0.001
29/03/2022,07:06:17,0.014,0.0,0.004,0.0
29/03/2022,07:07:25,0.014,0.0,0.004,0.0
29/03/2022,07:09:17,0.016,0.0,0.004,0.0
29/03/2022,07:10:17,0.017,0.0,0.005,0.001
29/03/2022,07:11:17,0.018,0.0,0.005,0.0
29/03/2022,07:12:18,0.019,0.0,0.005,0.0
29/03/2022,07:13:18,0.019,0.0,0.006,0.001
29/03/2022,07:14:17,0.020,0.0,0.006,0.0
29/03/2022,07:15:17,0.021,0.0,0.006,0.0
29/03/2022,07:16:17,0.021,0.0,0.007,0.001
29/03/2022,07:17:25,0.022,0.0,0.007,0.0
29/03/2022,07:18:16,0.022,0.0,0.007,0.0
29/03/2022,07:19:17,0.022,0.0,0.008,0.001
29/03/2022,07:20:25,0.023,0.0,0.008,0.0
29/03/2022,07:21:16,0.023,0.0,0.008,0.0
29/03/2022,07:22:17,0.024,0.0,0.009,0.001
29/03/2022,07:23:17,0.025,0.0,0.009,0.0
29/03/2022,07:24:17,0.026,0.0,0.01,0.001
29/03/2022,07:25:17,0.026,0.0,0.01,0.0
29/03/2022,07:26:17,0.026,0.0,0.011,0.001
29/03/2022,07:27:17,0.028,0.0,0.011,0.0
29/03/2022,07:28:17,0.030,0.0,0.012,0.001
29/03/2022,07:29:17,0.029,0.0,0.012,0.0
29/03/2022,07:30:17,0.030,0.0,0.012,0.0
29/03/2022,07:31:18,0.032,0.0,0.013,0.001
29/03/2022,07:32:17,0.032,0.0,0.014,0.001
29/03/2022,07:33:17,0.032,0.0,0.014,0.0
29/03/2022,07:34:26,0.033,0.0,0.015,0.001
29/03/2022,07:35:17,0.035,0.0,0.015,0.0
29/03/2022,07:36:17,0.036,0.0,0.016,0.001
29/03/2022,07:37:18,0.039,0.0,0.016,0.0
29/03/2022,07:38:18,0.042,0.0,0.017,0.001
29/03/2022,07:39:17,0.042,0.0,0.018,0.001
29/03/2022,07:40:17,0.043,0.0,0.018,0.0
29/03/2022,07:41:17,0.043,0.0,0.019,0.001
29/03/2022,07:42:17,0.043,0.0,0.02,0.001
29/03/2022,07:43:17,0.045,0.0,0.021,0.001
29/03/2022,07:44:25,0.042,0.0,0.021,0.0
29/03/2022,07:46:18,0.044,0.0,0.023,0.002
29/03/2022,07:47:17,0.044,0.0,0.024,0.001
29/03/2022,07:48:17,0.044,0.0,0.024,0.0
29/03/2022,07:49:17,0.042,0.0,0.025,0.001
29/03/2022,07:50:17,0.042,0.0,0.026,0.001
29/03/2022,07:51:17,0.045,0.0,0.026,0.0
29/03/2022,07:52:17,0.048,0.0,0.027,0.001
29/03/2022,07:53:17,0.045,0.0,0.028,0.001
29/03/2022,07:54:25,0.051,0.0,0.029,0.001
29/03/2022,07:56:18,0.053,0.0,0.031,0.002
29/03/2022,07:57:26,0.051,0.0,0.031,0.0
29/03/2022,07:59:18,0.052,0.0,0.033,0.002
29/03/2022,08:00:17,0.054,0.0,0.034,0.001
29/03/2022,08:01:17,0.056,0.0,0.035,0.001
29/03/2022,08:02:17,0.055,0.0,0.036,0.001
29/03/2022,08:03:17,0.054,0.0,0.037,0.001
29/03/2022,08:04:25,0.055,0.0,0.038,0.001
29/03/2022,08:06:18,0.055,0.0,0.039,0.001
29/03/2022,08:07:26,0.056,0.0,0.041,0.002
29/03/2022,08:09:18,0.060,0.0,0.042,0.001
29/03/2022,08:10:17,0.060,0.0,0.043,0.001
29/03/2022,08:11:16,0.061,0.0,0.044,0.001
29/03/2022,08:12:18,0.061,0.0,0.045,0.001
29/03/2022,08:13:17,0.061,0.0,0.046,0.001
29/03/2022,08:14:25,0.066,0.0,0.048,0.002
29/03/2022,08:16:18,0.069,0.0,0.05,0.002
29/03/2022,08:17:17,0.071,0.0,0.051,0.001
29/03/2022,08:18:18,0.072,0.0,0.052,0.001
29/03/2022,08:19:17,0.073,0.0,0.053,0.001
29/03/2022,08:20:17,0.074,0.0,0.054,0.001
29/03/2022,08:21:17,0.076,0.0,0.056,0.002
29/03/2022,08:22:17,0.077,0.0,0.057,0.001
29/03/2022,08:23:18,0.078,0.0,0.058,0.001
29/03/2022,08:24:17,0.079,0.0,0.06,0.002
29/03/2022,08:25:17,0.079,0.0,0.061,0.001
29/03/2022,08:26:17,0.080,0.0,0.062,0.001
29/03/2022,08:27:18,0.080,0.0,0.064,0.002
29/03/2022,08:28:25,0.082,0.0,0.065,0.001
29/03/2022,08:29:16,0.084,0.0,0.066,0.001
29/03/2022,08:30:18,0.084,0.0,0.068,0.002
29/03/2022,08:31:17,0.085,0.0,0.069,0.001
29/03/2022,08:32:17,0.087,0.0,0.071,0.002
29/03/2022,08:33:17,0.088,0.0,0.072,0.001
29/03/2022,08:34:18,0.089,0.0,0.073,0.001
29/03/2022,08:35:18,0.087,0.0,0.075,0.002
29/03/2022,08:36:17,0.086,0.0,0.076,0.001
29/03/2022,08:37:18,0.084,0.0,0.078,0.002
29/03/2022,08:38:25,0.082,0.0,0.079,0.001
29/03/2022,08:40:18,0.078,0.0,0.082,0.003
29/03/2022,08:41:17,0.077,0.0,0.083,0.001
29/03/2022,08:42:17,0.076,0.0,0.084,0.001
29/03/2022,08:43:31,0.076,0.0,0.086,0.002
29/03/2022,08:45:18,0.077,0.0,0.088,0.002
29/03/2022,08:46:17,0.076,0.0,0.089,0.001
29/03/2022,08:47:18,0.076,0.0,0.091,0.002
29/03/2022,08:48:26,0.077,0.0,0.092,0.001
29/03/2022,08:50:18,0.078,0.0,0.094,0.002
29/03/2022,08:51:18,0.078,0.0,0.096,0.002
29/03/2022,08:52:17,0.078,0.0,0.097,0.001
29/03/2022,08:53:17,0.079,0.0,0.098,0.001
29/03/2022,08:54:17,0.078,0.0,0.1,0.002
29/03/2022,08:55:17,0.079,0.0,0.101,0.001
29/03/2022,08:56:18,0.078,0.0,0.102,0.001
29/03/2022,08:57:18,0.076,0.0,0.104,0.002
29/03/2022,08:58:26,0.076,0.0,0.105,0.001
29/03/2022,09:00:18,0.080,0.0,0.108,0.003
29/03/2022,09:01:25,0.081,0.0,0.109,0.001
29/03/2022,09:02:16,0.083,0.0,0.11,0.001
29/03/2022,09:03:18,0.085,0.0,0.112,0.002
29/03/2022,09:04:04,0.087,0.0,0.113,0.001
29/03/2022,09:05:18,0.090,0.0,0.115,0.002
29/03/2022,09:06:18,0.091,0.0,0.116,0.001
29/03/2022,09:07:18,0.095,0.0,0.118,0.002
29/03/2022,09:08:17,0.095,0.0,0.119,0.001
29/03/2022,09:09:18,0.093,0.0,0.121,0.002
29/03/2022,09:10:17,0.092,0.0,0.122,0.001
29/03/2022,09:11:17,0.093,0.0,0.124,0.002
29/03/2022,09:12:17,0.092,0.0,0.125,0.001
29/03/2022,09:13:17,0.091,0.0,0.127,0.002
29/03/2022,09:14:26,0.089,0.0,0.129,0.002
29/03/2022,09:16:18,0.088,0.0,0.131,0.002
29/03/2022,09:17:17,0.088,0.0,0.133,0.002
29/03/2022,09:18:18,0.090,0.0,0.134,0.001
29/03/2022,09:19:17,0.090,0.0,0.136,0.002
29/03/2022,09:20:18,0.092,0.0,0.137,0.001
29/03/2022,09:21:17,0.094,0.0,0.139,0.002
29/03/2022,09:22:18,0.095,0.0,0.14,0.001
29/03/2022,09:23:17,0.097,0.0,0.142,0.002
29/03/2022,09:24:26,0.097,0.0,0.144,0.002
29/03/2022,09:25:17,0.100,0.0,0.145,0.001
29/03/2022,09:26:17,0.102,0.0,0.147,0.002
29/03/2022,09:27:17,0.100,0.0,0.149,0.002
29/03/2022,09:28:17,0.101,0.0,0.15,0.001
29/03/2022,09:29:17,0.108,0.0,0.152,0.002
29/03/2022,09:30:18,0.110,0.0,0.154,0.002
29/03/2022,09:31:17,0.111,0.0,0.156,0.002
29/03/2022,09:32:18,0.116,0.0,0.158,0.002
29/03/2022,09:33:17,0.119,0.0,0.16,0.002
29/03/2022,09:34:26,0.121,0.0,0.162,0.002
29/03/2022,09:35:17,0.124,0.0,0.164,0.002
29/03/2022,09:36:17,0.127,0.0,0.166,0.002
29/03/2022,09:37:18,0.130,0.0,0.168,0.002
29/03/2022,09:38:17,0.133,0.0,0.17,0.002
29/03/2022,09:39:18,0.138,0.0,0.172,0.002
29/03/2022,09:40:08,0.141,0.0,0.174,0.002
29/03/2022,09:41:18,0.144,0.0,0.177,0.003
29/03/2022,09:42:18,0.150,0.0,0.179,0.002
29/03/2022,09:43:17,0.152,0.0,0.182,0.003
29/03/2022,09:44:18,0.155,0.0,0.185,0.003
29/03/2022,09:45:17,0.157,0.0,0.187,0.002
29/03/2022,09:46:17,0.160,0.0,0.19,0.003
29/03/2022,09:47:17,0.161,0.0,0.192,0.002
29/03/2022,09:48:18,0.161,0.0,0.195,0.003
29/03/2022,09:49:17,0.155,0.0,0.198,0.003
29/03/2022,09:50:17,0.158,0.0,0.2,0.002
29/03/2022,09:51:17,0.160,0.0,0.203,0.003
29/03/2022,09:52:17,0.160,0.0,0.206,0.003
29/03/2022,09:53:17,0.157,0.0,0.208,0.002
29/03/2022,09:54:18,0.161,0.0,0.211,0.003
29/03/2022,09:55:17,0.159,0.0,0.214,0.003
29/03/2022,09:56:18,0.161,0.0,0.216,0.002
29/03/2022,09:57:17,0.168,0.0,0.219,0.003
29/03/2022,09:58:18,0.169,0.0,0.222,0.003
29/03/2022,09:59:18,0.171,0.0,0.225,0.003
29/03/2022,10:00:18,0.178,0.0,0.228,0.003
29/03/2022,10:01:17,0.173,0.0,0.23,0.002
29/03/2022,10:02:18,0.170,0.0,0.233,0.003
29/03/2022,10:03:17,0.175,0.0,0.236,0.003
29/03/2022,10:04:18,0.181,0.0,0.239,0.003
29/03/2022,10:05:18,0.179,0.0,0.242,0.003
29/03/2022,10:06:18,0.174,0.0,0.245,0.003
29/03/2022,10:07:17,0.180,0.0,0.248,0.003
29/03/2022,10:08:18,0.183,0.0,0.251,0.003
29/03/2022,10:09:19,0.177,0.0,0.254,0.003
29/03/2022,10:10:18,0.184,0.0,0.257,0.003
29/03/2022,10:11:26,0.178,0.0,0.261,0.004
29/03/2022,10:12:17,0.175,0.0,0.263,0.002
29/03/2022,10:13:18,0.171,0.0,0.266,0.003
29/03/2022,10:14:17,0.182,0.0,0.269,0.003
29/03/2022,10:15:18,0.188,0.0,0.272,0.003
29/03/2022,10:16:18,0.188,0.0,0.275,0.003
29/03/2022,10:17:17,0.184,0.0,0.278,0.003
29/03/2022,10:18:18,0.198,0.0,0.281,0.003
29/03/2022,10:19:18,0.195,0.0,0.285,0.004
29/03/2022,10:20:17,0.199,0.0,0.288,0.003
29/03/2022,10:21:17,0.197,0.0,0.291,0.003
29/03/2022,10:22:18,0.201,0.0,0.295,0.004
29/03/2022,10:23:18,0.203,0.0,0.298,0.003
29/03/2022,10:24:25,0.203,0.0,0.302,0.004
29/03/2022,10:25:16,0.209,0.0,0.305,0.003
29/03/2022,10:26:17,0.217,0.0,0.308,0.003
29/03/2022,10:27:18,0.221,1.0,0.312,0.004
29/03/2022,10:28:18,0.215,0.0,0.316,0.004
29/03/2022,10:29:17,0.202,0.0,0.319,0.003
29/03/2022,10:30:18,0.199,0.0,0.322,0.003
29/03/2022,10:31:17,0.195,0.0,0.326,0.004
29/03/2022,10:32:17,0.210,0.0,0.329,0.003
29/03/2022,10:33:17,0.214,0.0,0.333,0.004
29/03/2022,10:34:25,0.210,0.0,0.337,0.004
29/03/2022,10:35:16,0.205,0.0,0.34,0.003
29/03/2022,10:36:18,0.200,0.0,0.343,0.003
29/03/2022,10:37:17,0.200,0.0,0.346,0.003
29/03/2022,10:38:17,0.192,0.0,0.35,0.004
29/03/2022,10:39:18,0.197,0.0,0.353,0.003
29/03/2022,10:40:17,0.209,0.0,0.356,0.003